Wind_Speed
7 7 6 8 9 10 10 10 10 10 10 11 11 11 11 12 13 13 12 11 11 10 10 10 9 11 14 12 8 7 8 9 8 7 6 8 9 10 10 11 11 11 12 13 13 12 12 12 14 14 14 14 14 15 17 19 18 18 17 16 16 15 15 15 15 16 17 17 17 16 16 15 14 14 13 13 12 11 10 10 9 9 8 8 8
8 8 8 9 10 11 11 11 10 10 10 11 12 12 12 13 14 14 14 13 11 10 10 11 10 12 15 15 11 9 10 11 10 9 8 8 9 9 10 11 11 11 11 13 13 13 13 13 13 15 15 15 15 15 17 19 20 19 19 18 17 17 17 17 16 17 17 17 17 17 16 16 15 15 15 14 13 12 11 11 10 10 10 9 9
9 9 10 10 10 11 11 11 11 12 11 12 13 13 13 14 15 15 16 15 14 13 12 12 12 12 15 16 14 12 11 11 12 12 11 10 10 10 11 11 11 11 11 13 14 14 14 14 14 15 16 16 16 16 16 19 21 21 20 20 19 18 18 18 18 18 18 18 18 18 17 17 17 16 16 15 14 13 12 12 11 11 10 10 10
10 10 10 10 11 11 11 12 12 13 13 13 14 15 15 16 16 16 17 17 17 16 14 14 13 12 13 14 14 14 13 12 13 14 14 13 12 13 12 12 12 11 12 13 15 15 15 15 16 15 16 17 17 18 17 18 21 22 22 21 20 20 20 19 19 19 19 19 19 19 18 18 18 17 17 16 15 14 14 13 12 12 11 11 11
10 10 10 11 12 12 13 13 13 14 14 14 15 15 16 16 17 18 18 18 18 17 16 16 14 13 13 12 12 14 15 15 14 14 15 15 15 16 15 15 14 13 14 14 14 15 16 17 17 17 17 17 18 19 18 18 20 23 24 23 22 22 21 21 20 20 20 20 19 19 19 19 19 18 17 17 16 15 15 14 14 13 12 11 11
10 11 11 12 13 14 15 15 14 14 15 16 16 16 16 18 18 19 19 19 20 19 18 18 16 15 14 13 13 13 14 17 18 17 16 15 16 17 17 17 17 16 15 16 15 16 16 17 18 19 19 19 19 20 20 19 19 22 24 24 24 23 22 22 21 21 21 20 20 20 19 19 19 19 18 17 17 16 16 15 15 14 13 12 11
10 12 12 12 13 14 16 17 16 16 16 18 18 18 19 19 20 19 20 20 20 21 21 20 18 17 16 15 16 16 16 18 20 21 19 17 17 18 18 18 19 18 17 17 17 18 18 18 18 19 20 20 20 20 21 20 19 20 24 25 25 24 23 23 23 22 22 22 21 21 20 20 20 19 19 18 17 17 16 16 15 15 14 13 12
11 13 14 13 13 15 18 18 17 17 17 17 18 19 20 19 19 19 20 20 20 21 21 21 21 20 18 17 18 18 19 20 20 22 21 18 18 18 19 20 19 19 19 19 20 20 20 20 19 19 20 21 22 22 22 22 21 20 22 25 26 25 25 24 24 24 23 23 23 22 22 21 21 20 20 19 18 18 17 17 16 15 15 14 14
13 14 16 15 13 15 16 15 15 15 14 14 15 16 17 17 17 18 18 19 19 19 19 19 20 21 20 19 19 18 19 20 20 22 23 20 18 18 20 20 20 20 21 21 21 21 21 21 21 20 20 21 23 23 23 23 23 22 22 23 25 26 26 26 25 25 25 25 25 24 24 23 22 22 21 20 20 19 18 18 17 17 16 15 15
13 14 16 15 13 13 13 12 13 13 13 14 14 14 14 15 15 16 17 18 18 19 19 18 18 20 20 20 19 18 18 19 20 23 24 22 19 19 21 21 21 21 22 22 22 21 21 22 22 21 20 21 23 24 25 25 25 24 23 23 24 26 27 27 27 27 27 27 27 26 25 25 24 23 23 22 21 21 20 19 19 18 17 17 16
10 12 14 13 11 13 13 12 12 13 13 15 15 15 15 16 17 17 17 18 19 19 19 19 18 19 20 20 20 20 18 18 19 23 26 25 23 22 23 23 23 23 24 23 23 23 22 22 22 21 20 21 22 24 25 26 26 26 26 25 25 25 27 28 28 28 28 28 28 28 27 26 26 25 24 23 23 22 22 21 20 20 19 18 17
9 11 12 10 9 10 10 10 12 13 14 15 15 16 16 17 18 17 17 19 19 18 18 18 19 21 21 21 20 20 20 19 19 21 23 25 26 26 26 27 26 26 26 25 24 24 23 22 22 22 22 23 23 24 25 26 27 28 28 27 27 26 27 28 28 29 29 29 29 29 28 27 27 26 26 25 24 24 23 22 22 21 20 19 19
9 9 8 7 7 8 10 12 13 15 16 16 16 16 16 17 17 17 17 19 19 17 18 19 19 21 20 19 19 19 19 20 19 19 19 21 23 25 26 28 29 28 28 27 25 25 24 23 23 23 24 26 25 25 25 25 26 28 29 29 29 29 28 28 29 29 29 29 29 29 29 29 28 27 27 26 26 25 25 24 23 22 21 20 19
10 10 8 8 9 12 15 16 16 16 17 16 17 18 18 18 17 17 17 18 18 15 16 17 18 18 18 19 19 18 18 18 17 17 16 16 17 19 20 23 27 29 29 28 27 26 25 26 26 25 25 26 26 26 26 25 25 26 28 29 30 30 30 30 30 30 30 30 30 30 30 29 29 28 28 27 27 26 25 24 23 23 22 21 20
10 11 11 12 14 16 17 16 15 15 16 16 17 18 19 18 17 17 17 17 17 15 14 15 16 16 16 16 19 21 21 17 15 15 15 16 15 16 17 17 20 23 27 29 29 28 27 27 28 27 26 26 27 27 27 26 26 26 26 27 29 31 32 32 32 31 31 31 30 30 30 30 29 29 29 28 27 26 25 25 24 24 23 22 21
10 11 13 14 14 15 14 13 13 13 14 14 15 16 17 17 16 16 16 16 16 15 14 14 15 15 12 14 17 19 18 17 18 19 17 17 16 16 16 17 17 17 22 27 27 27 26 27 28 28 28 28 28 28 29 28 27 27 27 27 28 29 31 33 33 33 33 32 32 31 31 30 30 30 29 29 28 27 26 26 25 25 24 23 23
13 13 13 12 12 11 10 10 11 11 12 12 12 13 13 13 13 13 13 14 15 15 14 12 13 13 12 13 14 12 13 17 22 22 18 15 14 13 13 15 17 17 19 23 25 26 26 27 29 29 29 30 29 29 30 29 28 28 28 27 27 28 29 31 33 34 34 34 33 33 32 31 31 30 30 29 28 28 27 26 26 25 25 24 24
11 10 9 8 8 9 9 9 10 10 10 10 11 11 11 11 11 12 12 13 14 15 14 12 12 12 12 12 12 12 15 18 20 21 22 19 17 16 14 15 17 18 19 21 23 25 26 27 29 30 30 31 30 29 30 30 30 29 28 28 28 27 28 29 31 33 35 35 34 33 33 32 31 31 30 29 29 28 28 27 26 26 25 25 25
7 7 6 5 6 8 9 9 9 10 10 9 9 9 9 10 10 12 12 11 12 13 13 13 13 13 13 13 13 14 15 16 17 20 24 25 23 20 18 17 19 20 21 22 23 24 26 27 28 29 30 31 31 31 31 31 31 30 29 29 28 28 28 29 30 31 33 35 35 34 34 33 32 32 31 30 30 29 29 28 27 27 26 26 25
7 6 4 4 6 7 8 8 8 10 9 9 9 8 8 8 9 9 10 10 10 12 13 13 13 13 14 14 14 14 14 14 16 17 20 24 26 24 21 20 20 20 20 21 23 23 25 26 26 26 28 28 28 30 31 31 32 32 31 29 29 29 30 30 29 30 32 34 34 35 35 34 33 33 33 32 32 31 31 30 29 28 27 27 26
5 4 3 5 6 7 7 8 9 9 9 8 8 8 8 9 9 10 10 10 10 11 12 12 12 13 14 14 14 14 14 14 14 15 17 21 24 26 26 25 24 22 20 20 21 21 23 25 24 24 26 25 24 26 29 31 32 33 32 30 29 30 32 32 31 30 31 32 33 35 35 35 34 34 34 34 34 33 33 32 31 30 30 29 28
4 3 2 2 4 6 8 9 9 8 8 8 7 7 8 9 10 10 11 11 11 11 12 12 12 12 13 14 14 14 15 15 15 16 18 19 21 25 27 27 27 26 23 21 21 20 21 23 24 25 25 25 24 25 27 30 31 32 32 32 31 31 32 34 34 32 31 32 33 34 35 35 35 35 35 35 35 35 34 33 33 33 32 31 30
4 2 2 1 5 8 8 7 6 6 6 7 7 8 8 8 8 9 10 11 11 11 12 12 12 12 12 13 14 13 14 15 14 15 17 19 21 24 25 25 27 28 26 24 24 21 20 21 23 25 25 25 26 26 27 29 29 30 32 33 34 33 33 34 35 34 33 32 33 34 35 35 35 35 35 35 35 35 35 35 34 34 34 33 32
4 1 1 4 7 7 7 7 7 7 6 6 7 7 7 7 8 9 9 10 10 11 11 11 11 12 12 12 12 12 12 12 13 13 15 16 19 21 23 24 26 28 28 26 26 24 21 21 22 24 26 28 29 30 30 31 31 30 31 34 35 35 35 35 35 35 34 33 33 34 34 34 34 34 35 35 35 35 35 35 35 35 34 33 33
4 3 4 6 6 7 6 7 8 8 8 7 7 7 8 8 9 10 10 9 9 9 9 10 11 11 11 11 11 11 11 11 12 13 14 15 17 20 22 22 25 28 29 28 28 26 24 22 21 22 24 27 30 32 33 34 35 34 33 35 37 37 37 36 35 35 35 35 34 34 34 34 34 34 35 35 35 35 35 35 35 35 34 34 33
4 3 5 6 6 5 6 7 8 8 9 8 7 8 8 9 10 10 10 10 10 9 9 9 10 11 11 10 10 10 10 11 11 12 14 15 16 19 22 23 25 28 28 28 29 29 27 25 24 23 23 23 25 29 31 34 36 36 35 36 37 38 38 37 36 35 35 35 35 35 35 34 34 35 35 35 35 35 35 35 35 35 34 34 34
5 5 5 5 5 5 6 7 7 8 8 9 8 9 9 9 10 10 10 10 10 8 9 9 9 10 10 10 9 10 10 10 10 12 13 15 17 19 22 24 26 28 29 30 31 31 30 29 28 25 23 22 22 23 27 30 33 34 35 36 38 38 38 36 35 35 35 35 36 37 35 34 34 34 35 36 36 36 36 35 36 35 35 34 35
5 7 7 7 7 7 8 8 8 8 8 8 8 9 9 9 9 9 9 9 8 8 8 8 8 9 9 9 9 10 10 9 10 11 13 16 18 20 21 22 24 28 31 33 34 33 32 31 30 28 25 24 22 21 22 25 28 29 30 34 37 38 39 37 35 35 35 36 37 38 37 35 34 35 35 37 38 37 37 37 37 37 36 36 35
6 9 10 10 9 9 10 9 9 9 8 8 8 9 10 10 9 9 9 9 9 8 8 8 8 9 10 10 9 9 10 9 9 10 13 17 19 21 21 20 21 24 28 32 35 36 34 33 32 30 27 26 26 24 23 23 24 24 26 29 34 38 39 37 35 35 36 36 37 37 37 36 34 35 35 36 37 38 38 37 37 38 38 37 37
7 8 10 10 10 11 11 11 10 9 9 9 9 10 11 11 10 9 9 10 10 9 8 8 9 9 10 10 10 10 11 9 8 9 14 18 21 22 21 21 21 22 25 29 34 36 35 36 35 33 31 30 28 27 26 25 24 23 23 25 28 32 34 33 33 34 35 36 36 37 37 35 34 35 35 35 37 38 39 38 38 38 38 38 38
6 7 8 9 11 13 12 11 10 9 8 9 9 10 10 11 9 8 8 10 10 10 9 9 10 10 10 9 9 10 11 10 8 10 14 17 20 21 20 21 21 22 24 26 31 35 34 36 39 38 36 34 31 29 28 28 28 26 25 25 25 26 29 31 33 34 35 34 35 36 35 33 31 32 33 34 36 38 39 39 39 39 39 39 39
6 8 9 10 13 14 12 11 11 10 10 9 10 9 9 10 10 9 9 10 11 11 10 11 11 12 11 10 9 10 11 11 10 11 14 16 18 19 20 21 22 23 25 25 30 35 34 33 36 38 36 36 34 32 30 30 30 30 29 29 27 26 28 30 31 33 35 35 34 34 33 31 30 30 31 32 35 37 39 39 39 38 38 38 38
7 8 10 12 14 13 12 12 13 13 13 13 12 11 10 11 12 12 11 11 11 12 11 12 13 13 12 12 11 11 11 12 12 13 14 16 17 19 20 21 22 23 25 27 31 36 36 34 34 35 34 34 35 34 32 31 31 31 32 33 30 28 29 29 30 31 33 35 35 35 35 33 32 32 32 33 34 36 38 39 39 39 38 38 38
9 10 10 13 14 13 12 13 14 15 16 16 16 14 11 11 12 12 13 13 13 14 14 14 14 14 13 13 13 13 12 12 12 14 16 16 17 19 20 21 22 24 25 28 32 35 38 37 37 37 34 32 33 34 32 31 30 29 31 34 33 30 29 30 31 32 33 34 37 38 38 36 34 33 34 36 37 36 37 39 40 41 41 40 40
10 10 11 12 13 12 11 12 14 15 16 17 19 16 12 12 12 13 13 14 15 16 16 16 15 15 14 15 16 14 13 13 14 15 17 17 18 19 20 22 24 25 26 29 32 34 36 37 38 39 37 34 32 32 31 30 30 28 29 33 35 34 32 31 31 32 33 34 36 38 38 36 35 34 35 37 37 37 37 38 40 41 42 41 41
9 10 10 10 10 10 11 12 13 15 16 17 20 18 13 12 13 13 13 13 14 16 16 16 15 15 15 16 17 16 15 16 17 18 18 18 19 20 22 23 25 27 28 29 32 33 33 35 39 39 37 35 34 32 30 30 30 29 29 31 35 37 37 35 33 33 33 33 34 36 37 37 36 35 35 35 35 35 37 38 39 40 41 41 41
12 12 11 12 12 11 11 12 12 13 14 17 20 19 14 11 11 11 11 13 14 15 16 15 15 16 16 16 16 15 15 17 19 20 20 20 22 24 25 26 26 28 30 31 33 34 33 35 39 40 35 33 34 31 29 29 31 30 30 30 32 36 37 37 37 36 35 34 33 34 36 37 37 35 34 33 33 33 35 37 39 40 41 41 41
16 14 14 15 13 12 11 12 12 14 16 19 20 18 14 12 10 10 11 13 15 16 16 17 17 17 17 16 15 14 16 19 20 21 21 22 24 26 27 27 27 28 30 33 34 35 34 36 39 39 36 32 32 30 27 27 29 29 29 29 31 33 36 36 36 36 37 37 36 36 36 37 36 36 34 34 34 34 34 36 38 40 41 41 40
13 14 16 15 14 13 14 14 15 17 18 19 16 14 15 14 11 11 12 13 16 17 17 18 18 17 17 16 15 15 17 19 20 20 21 22 25 26 26 26 26 27 30 33 35 35 36 38 39 38 37 33 30 29 26 25 26 28 28 29 31 32 34 36 36 36 36 38 39 38 38 38 38 38 37 36 36 36 36 36 38 40 40 40 40
11 12 13 12 13 13 14 14 13 14 14 12 11 12 14 13 11 11 12 13 15 18 19 18 17 17 16 14 14 15 17 18 19 20 21 23 24 25 24 24 25 27 29 32 35 36 37 38 38 38 37 34 30 28 26 25 26 28 28 29 31 33 34 36 37 36 36 37 38 39 38 38 39 39 39 38 38 38 38 37 37 39 40 40 40
9 10 10 11 12 13 12 12 12 11 10 9 10 13 13 11 11 12 12 13 16 18 19 18 17 17 15 14 14 16 17 18 19 20 21 22 23 23 23 24 25 26 29 32 34 35 36 37 37 37 35 34 32 29 27 26 26 28 27 28 31 33 34 36 37 37 37 37 38 40 40 39 39 39 40 40 39 38 39 39 39 39 40 40 39
9 9 10 11 11 11 12 12 12 10 9 9 10 11 10 10 10 11 12 13 16 18 18 17 18 17 15 14 15 17 18 18 18 18 20 21 22 22 22 24 25 26 29 30 31 34 36 36 37 35 34 33 32 31 30 28 27 27 28 29 31 31 32 36 38 38 39 40 40 41 41 39 38 39 40 40 39 39 40 40 40 40 39 39 38
8 9 10 11 10 11 12 13 12 11 10 9 10 10 9 8 9 10 12 13 15 17 17 17 17 16 15 15 16 17 18 17 17 16 17 19 19 20 21 23 23 25 27 27 29 33 35 36 36 34 33 34 33 32 32 31 29 28 28 29 30 31 31 34 37 38 39 40 40 42 42 40 38 38 39 40 39 39 41 41 40 39 38 37 37
9 10 10 10 10 11 12 13 14 12 10 9 9 9 10 10 10 11 11 13 15 16 16 16 16 15 14 15 16 16 16 16 16 15 15 16 17 19 21 22 23 23 23 23 27 32 34 35 36 35 34 34 34 33 33 33 32 30 29 29 30 31 31 33 35 38 38 37 37 40 42 40 38 38 39 40 38 38 40 40 39 39 38 36 34
10 10 10 10 10 10 12 15 15 11 9 9 10 11 12 13 13 13 14 14 15 16 16 16 15 14 13 15 16 16 15 15 15 15 15 16 17 19 21 22 22 21 19 20 24 29 32 34 36 36 34 33 33 33 33 33 33 32 32 31 30 30 32 34 35 36 37 36 35 37 40 39 38 37 38 38 36 37 39 39 38 38 38 36 34
12 11 11 12 11 11 13 15 14 10 9 11 12 13 15 15 15 15 16 16 16 16 16 16 15 14 13 14 16 17 15 14 13 14 15 16 18 20 21 22 22 19 17 19 23 27 31 33 35 36 34 32 32 32 31 30 31 32 33 33 31 31 33 35 34 34 36 38 36 35 38 38 35 35 37 37 36 35 37 38 37 37 37 37 36
13 12 12 13 13 12 13 13 12 10 11 14 16 17 17 17 17 16 16 16 16 16 16 16 16 15 14 14 16 17 17 15 14 15 17 18 20 21 22 23 22 19 17 18 21 26 30 32 34 35 34 32 32 31 29 29 29 30 32 34 34 34 33 34 35 35 35 38 38 35 37 37 34 34 36 36 35 35 34 35 36 36 37 38 37
13 13 13 13 12 11 11 11 11 12 14 16 17 18 18 19 18 16 15 15 15 16 17 17 17 16 15 15 15 17 18 16 15 17 19 20 21 21 22 23 22 19 18 18 20 25 29 32 33 33 33 33 33 32 30 28 27 27 29 34 36 37 35 34 36 36 34 36 38 36 37 37 34 34 36 35 34 35 34 34 35 35 36 37 36
14 14 14 13 12 11 11 12 13 14 15 16 18 19 18 18 17 16 14 15 15 16 18 18 17 17 16 15 16 17 17 17 17 18 19 20 21 20 22 23 22 21 20 19 21 24 27 30 32 32 33 35 36 35 33 29 26 24 25 32 38 38 38 36 36 36 34 34 36 35 36 37 34 34 36 35 34 35 33 33 34 34 35 36 36
15 15 14 14 13 12 13 14 15 15 15 17 19 19 17 16 17 16 15 15 16 17 18 18 17 16 16 16 15 16 16 17 17 17 18 20 20 20 22 23 23 23 22 20 22 26 27 29 32 34 36 36 37 37 36 31 25 22 24 32 38 38 39 39 37 36 35 34 33 33 34 36 35 33 34 33 33 35 34 32 32 33 34 35 36
15 15 15 14 14 14 14 14 14 15 16 18 20 18 17 17 17 15 14 14 15 16 17 17 16 16 16 16 15 15 16 16 15 16 18 20 20 20 21 23 24 25 23 21 23 27 29 31 33 38 40 38 36 38 38 34 26 21 21 27 35 38 39 42 39 36 35 35 33 32 33 34 34 33 34 33 32 33 33 31 30 31 32 33 34
Wind_Direction
290 291 300 303 301 302 305 312 316 313 314 314 310 310 308 306 306 303 300 300 303 305 306 309 300 291 296 297 295 297 288 279 272 268 269 266 266 261 251 249 250 248 247 248 246 242 240 235 230 229 230 229 226 223 219 219 218 214 213 213 213 213 214 214 211 210 209 210 209 208 208 207 208 209 208 207 209 212 211 207 208 212 215 219 223
290 291 294 294 296 302 304 305 306 307 308 306 303 304 303 300 295 292 292 292 293 293 298 302 299 293 294 295 294 292 287 282 275 269 264 260 264 267 261 257 256 255 253 252 251 249 246 243 238 235 234 234 231 228 223 222 222 220 217 217 216 214 215 216 215 213 212 211 210 209 210 211 212 212 211 212 213 216 217 215 215 217 221 226 230
280 284 291 289 287 292 297 302 304 303 303 301 299 300 298 293 288 284 285 289 291 290 292 296 297 294 290 290 291 288 285 283 283 280 274 265 263 266 267 263 261 262 262 261 258 256 253 250 246 241 238 237 237 234 230 225 223 223 222 220 219 218 216 217 218 218 216 216 215 214 213 214 214 214 215 217 217 218 221 222 222 223 226 230 234
274 279 287 285 285 292 297 302 303 299 298 298 297 295 292 290 287 284 283 285 288 288 290 292 295 295 288 285 286 287 289 285 283 286 286 282 276 272 268 264 260 257 257 255 255 258 256 254 252 249 243 240 240 238 236 232 226 224 226 224 221 221 220 218 219 220 220 220 219 219 216 216 216 217 219 221 222 222 223 225 226 228 231 234 237
275 284 291 291 293 298 301 300 299 296 296 296 295 293 290 289 287 285 284 283 284 285 286 288 290 291 288 282 279 284 289 286 282 282 283 284 284 279 273 267 261 253 250 246 244 251 254 252 252 253 250 244 242 240 239 238 231 225 226 227 225 223 223 221 220 221 223 222 222 222 221 219 219 221 223 225 227 227 226 227 227 229 231 235 237
277 287 296 303 305 304 302 302 300 296 295 294 293 295 294 292 292 289 287 285 285 284 282 283 284 286 286 281 275 276 280 281 282 279 274 274 276 276 271 266 263 259 254 248 241 242 247 248 248 250 252 249 245 243 242 241 238 231 226 227 228 227 226 224 223 222 224 224 224 224 223 223 223 224 226 228 230 231 230 229 228 228 229 232 236
282 286 291 300 304 305 303 302 302 297 293 293 293 295 294 293 293 293 292 290 288 285 283 281 279 280 282 280 277 274 273 277 280 276 271 269 269 270 268 264 265 263 259 254 249 244 243 245 245 245 248 251 249 246 244 242 243 239 231 228 229 230 230 228 226 224 224 225 225 225 225 225 225 226 228 229 230 230 230 230 230 230 230 232 234
289 287 289 287 290 304 304 301 299 296 294 293 292 293 294 294 294 294 294 292 291 288 286 284 280 280 280 278 278 276 272 273 275 274 270 267 265 267 267 266 265 264 263 261 258 254 248 246 246 244 244 247 250 249 246 244 243 243 239 234 231 231 232 233 231 228 226 226 227 227 227 227 227 228 229 230 231 230 230 231 232 233 234 236 236
288 288 295 293 299 310 306 303 301 299 297 294 293 293 295 295 296 297 297 297 297 295 294 292 287 283 280 278 280 279 272 268 270 273 272 269 265 267 268 267 266 266 266 266 264 260 255 252 249 246 246 246 248 250 249 248 245 243 242 240 237 234 233 234 235 233 231 229 229 229 229 229 229 229 230 231 232 232 232 233 234 237 238 240 241
291 294 300 303 312 312 306 307 304 303 304 301 301 302 302 299 298 300 300 300 300 299 300 298 293 288 285 283 282 281 275 267 265 268 272 273 270 269 268 267 267 266 264 265 264 262 261 258 250 245 247 248 249 250 251 250 248 246 245 243 241 240 237 236 236 236 235 233 232 232 231 231 231 231 231 231 232 233 235 236 237 239 241 242 244
306 298 298 303 306 301 301 304 303 306 306 306 308 310 310 307 305 304 300 298 296 297 297 296 296 292 290 290 286 284 282 275 268 265 267 272 271 269 267 267 268 267 265 264 263 261 262 261 253 246 247 250 251 251 250 251 251 249 247 246 245 244 243 241 239 238 237 237 236 236 235 235 234 234 233 233 233 234 236 238 240 241 243 244 244
307 298 296 297 295 291 294 297 301 304 301 302 304 308 310 308 309 307 302 302 300 299 298 297 298 296 295 296 292 288 287 283 277 271 268 270 271 271 269 267 267 266 264 263 262 261 261 259 254 249 247 247 248 248 249 250 251 251 250 248 247 246 245 244 243 241 239 239 239 239 239 239 238 237 237 236 236 236 238 239 241 243 244 245 245
307 311 303 290 290 293 299 301 304 303 301 302 303 306 308 306 309 309 308 309 308 308 305 302 302 301 301 298 292 292 291 288 283 279 277 276 274 273 272 268 265 263 263 261 259 260 260 257 255 252 249 247 244 243 245 247 249 250 250 250 249 249 248 246 245 244 242 241 241 241 241 241 241 241 241 241 241 240 240 241 241 243 244 244 245
302 310 304 298 306 308 308 307 306 306 304 305 304 305 304 305 309 311 312 310 309 312 307 304 304 304 306 303 301 302 300 296 292 289 291 290 284 278 277 271 266 263 261 258 256 258 259 257 255 255 253 250 247 245 245 246 246 248 249 249 250 250 250 249 247 246 245 244 243 243 243 242 243 243 243 244 245 244 243 243 242 241 242 242 242
289 297 298 300 305 305 305 304 305 306 303 301 301 301 302 306 310 312 315 311 308 310 308 306 303 303 306 308 311 311 308 308 305 302 302 299 293 288 285 280 274 267 261 256 255 259 260 256 254 256 257 255 252 250 250 249 246 247 248 249 250 251 250 249 248 247 246 245 244 244 244 244 244 244 245 245 245 245 244 244 243 242 241 240 239
273 284 291 294 296 298 301 305 306 304 301 302 303 305 308 308 309 312 316 314 310 311 314 313 306 305 306 305 309 308 306 311 308 304 302 298 295 290 286 286 285 276 264 257 256 259 261 257 254 255 258 259 256 254 253 251 247 244 245 247 248 251 252 250 248 247 247 246 246 246 246 246 246 246 246 246 245 244 244 244 244 244 242 241 239
281 290 297 298 297 296 301 307 308 306 308 313 317 319 319 316 314 316 317 317 316 317 322 323 312 308 304 303 307 301 299 311 311 306 303 299 294 284 275 277 282 278 267 259 258 258 257 256 257 258 258 258 258 256 253 252 250 247 247 248 247 248 250 250 248 247 247 247 246 246 247 247 248 247 247 246 245 244 243 244 244 245 244 243 242
295 305 308 303 298 297 302 310 312 314 319 325 330 332 330 328 327 327 328 326 323 322 326 328 319 313 311 308 305 299 305 313 309 305 307 306 302 295 282 272 274 277 275 269 269 267 264 262 262 261 259 257 258 257 253 251 250 249 249 249 247 247 249 249 249 247 246 247 246 246 247 247 246 246 246 245 244 243 243 244 244 246 246 247 247
318 320 318 306 301 302 308 313 314 315 321 325 330 335 336 336 335 335 337 335 329 324 326 330 327 324 325 320 312 308 313 314 305 304 309 309 307 307 301 289 281 278 278 278 279 280 279 276 271 264 259 256 257 257 254 251 250 248 247 247 246 246 247 249 251 249 247 246 246 246 247 246 245 244 243 243 243 243 244 245 245 246 247 248 250
324 325 336 324 309 309 309 309 313 315 320 326 330 336 338 337 337 335 334 334 330 325 327 332 332 329 327 323 319 319 319 315 309 307 307 307 308 310 311 308 299 289 286 288 288 287 283 277 272 267 261 259 259 259 258 255 253 250 247 247 247 248 249 248 250 251 250 247 245 246 247 247 246 244 243 242 243 244 245 246 246 246 247 248 250
311 296 292 296 302 308 308 311 320 321 320 327 332 336 337 334 333 334 334 332 331 330 329 331 333 331 327 323 320 321 321 319 320 319 315 311 310 312 316 316 310 303 301 304 302 296 286 276 271 270 268 268 266 264 264 261 257 252 249 249 249 251 253 251 249 249 250 249 247 245 245 246 247 246 244 243 243 245 245 246 246 247 248 249 250
305 283 263 278 291 292 301 313 321 321 320 326 330 330 332 332 333 337 338 334 332 332 331 331 332 331 329 328 325 325 326 327 329 329 323 316 312 313 318 319 315 310 307 308 308 303 291 280 271 267 267 269 266 265 266 264 259 253 252 253 253 253 254 254 252 248 246 247 248 246 244 244 246 247 247 245 243 244 245 245 246 247 249 250 250
322 5 70 246 273 286 306 323 329 328 325 324 326 328 331 334 338 341 339 332 329 329 331 331 331 332 334 332 331 334 333 332 332 329 325 323 321 318 319 321 317 311 309 308 306 303 296 285 274 268 267 267 267 265 264 263 261 257 256 256 256 255 253 252 251 249 246 244 245 246 245 243 244 246 248 247 245 244 244 244 245 247 248 250 250
316 355 262 271 286 305 323 338 345 343 339 334 330 330 333 336 338 339 335 328 325 326 329 332 331 333 334 333 336 341 339 336 338 336 334 333 330 325 324 326 319 312 313 313 307 302 296 288 281 274 270 269 267 265 265 263 262 260 259 258 256 255 252 249 248 248 247 243 242 244 245 244 243 244 246 248 247 245 244 244 245 246 247 248 249
302 284 288 296 308 321 332 345 348 343 344 346 338 329 330 333 334 336 337 332 330 329 330 334 335 334 336 341 346 347 347 348 346 344 343 339 333 327 326 325 319 314 316 317 315 308 299 292 288 281 275 271 267 264 264 263 261 259 257 257 255 254 252 249 246 246 247 246 242 241 243 244 244 244 244 246 247 247 246 246 245 246 247 247 248
310 304 305 309 311 320 337 344 340 338 341 342 339 331 329 334 338 339 341 340 340 340 338 338 339 337 339 347 353 356 357 354 349 348 346 342 336 332 329 326 321 318 317 317 317 313 307 302 299 293 284 278 273 269 264 261 260 259 256 255 255 253 251 248 246 246 248 249 246 242 240 242 244 244 243 244 245 246 247 248 248 248 248 248 248
321 314 308 310 312 324 335 334 333 335 334 332 329 327 327 335 341 340 341 342 342 340 335 336 339 339 338 341 348 355 354 351 350 347 344 341 339 338 335 331 326 321 317 315 314 311 310 308 305 301 294 287 283 279 271 263 261 260 257 256 255 252 248 247 247 247 250 252 251 246 242 240 242 243 243 243 244 245 246 247 248 249 249 249 249
321 311 308 312 319 329 332 331 334 333 326 322 321 323 328 331 333 333 336 340 343 340 334 333 336 337 336 335 338 345 346 346 344 341 343 345 344 341 336 332 327 321 317 316 313 310 310 309 306 303 301 296 290 286 283 274 268 264 260 257 255 251 246 246 248 250 253 254 252 248 244 242 241 241 242 243 244 246 246 247 248 249 250 251 250
302 301 307 316 325 332 335 337 336 332 330 327 324 327 330 328 326 327 329 331 337 343 341 336 332 332 332 330 330 334 338 341 340 341 349 351 349 349 343 335 329 322 317 314 311 309 308 307 305 301 301 300 292 286 284 281 279 275 268 260 254 250 246 246 250 253 255 256 252 247 244 243 242 240 240 242 243 245 246 247 248 249 250 250 251
308 307 313 321 328 333 338 339 335 330 328 324 321 319 317 319 323 323 322 325 328 332 334 331 329 326 323 319 318 322 328 336 343 348 352 351 353 356 351 341 334 327 320 313 307 306 306 304 303 300 299 298 294 285 277 273 275 276 273 266 258 253 251 252 254 255 255 254 250 246 243 241 242 241 240 241 243 243 245 246 247 249 250 250 251
336 329 325 329 335 338 340 341 338 330 318 308 306 307 307 311 316 318 319 319 319 320 322 323 325 324 319 311 307 313 319 327 338 345 348 352 356 359 354 346 340 332 328 321 311 308 309 306 303 301 298 295 292 286 276 267 264 266 268 267 262 258 257 257 257 254 252 251 247 243 239 237 239 241 241 243 243 243 243 244 246 248 249 250 251
338 334 333 338 341 341 343 346 346 341 330 316 305 299 301 307 311 316 320 316 312 312 314 320 320 316 315 310 300 302 311 315 323 334 341 348 355 0 357 350 345 336 330 329 322 317 318 315 308 304 300 295 290 285 279 268 260 259 263 264 265 263 260 258 256 254 252 249 245 241 238 236 238 240 243 245 245 243 242 243 245 246 247 249 250
319 320 323 333 337 338 341 342 339 338 338 336 324 306 296 301 307 311 315 316 311 305 306 311 310 307 311 310 299 295 302 307 316 324 331 340 349 357 359 354 350 344 335 332 329 325 325 323 317 312 306 298 289 283 281 274 263 258 259 260 261 264 263 259 256 255 253 250 246 243 241 240 240 241 246 249 248 246 244 243 244 245 245 247 249
306 307 310 319 325 327 333 332 327 326 329 332 330 318 297 294 300 301 305 310 308 304 303 304 303 305 310 309 302 297 296 299 307 313 320 331 341 350 357 356 351 348 343 337 334 330 327 327 325 320 315 307 292 282 281 279 271 263 259 256 254 258 261 260 258 257 257 254 249 245 244 244 243 244 249 251 250 247 245 244 244 244 245 246 248
300 303 304 310 315 317 321 322 319 319 321 322 324 321 304 293 296 298 302 308 309 309 309 306 304 306 308 307 304 302 298 294 297 304 312 322 332 341 350 353 349 345 343 339 335 331 327 327 327 324 320 315 299 283 279 280 276 269 262 255 251 252 254 256 257 257 257 258 253 247 246 246 246 246 250 251 249 246 245 245 245 245 245 246 246
286 287 288 293 300 303 308 314 315 315 313 311 315 318 309 298 300 302 304 309 312 313 311 309 307 305 303 301 301 301 299 293 293 299 305 313 323 329 334 339 342 341 339 336 334 331 323 322 327 326 320 316 306 288 278 279 278 273 266 258 253 252 252 252 253 254 255 258 255 249 247 248 248 247 249 250 249 246 244 244 245 245 245 245 245
266 266 271 277 282 290 299 306 308 306 303 301 306 312 312 305 304 306 310 312 313 314 315 312 308 305 304 302 300 301 298 292 291 295 299 308 317 320 320 324 330 333 335 334 332 330 323 320 325 325 319 316 311 296 279 276 279 277 271 264 257 254 253 252 252 252 253 256 254 249 246 247 246 246 247 249 250 249 247 245 246 245 244 243 244
265 267 272 277 278 282 287 290 290 289 289 293 300 307 313 314 308 305 313 316 314 316 317 316 313 311 311 309 305 299 292 289 289 290 293 302 312 315 314 317 322 325 330 333 331 329 326 324 327 326 321 319 315 302 285 276 277 277 274 268 261 256 253 253 252 251 252 253 252 247 245 246 246 246 248 249 250 250 249 248 246 245 243 243 243
270 269 271 273 273 276 280 281 280 279 281 287 295 303 309 314 313 309 314 316 315 318 319 319 319 316 312 307 301 296 295 297 295 290 289 295 304 310 314 317 319 320 325 330 330 328 328 327 327 327 324 321 317 306 291 280 275 271 270 269 265 257 252 250 250 250 251 252 252 250 249 250 250 249 249 250 251 251 249 248 247 245 243 242 242
268 268 272 276 279 285 288 289 289 286 286 290 296 301 303 307 312 314 315 316 319 323 322 321 319 313 308 306 303 304 307 307 302 295 292 294 299 309 317 318 318 318 322 326 328 329 330 327 327 328 325 321 318 311 299 290 282 272 267 268 267 262 255 251 250 251 252 253 253 254 253 253 253 251 249 250 251 250 248 246 246 245 243 242 241
274 277 285 287 289 294 299 306 308 302 297 296 296 298 299 303 308 313 317 321 323 324 321 319 317 312 310 309 308 309 309 306 301 297 295 296 301 310 317 316 316 318 320 324 329 332 332 329 327 327 323 319 318 315 307 299 291 280 271 269 269 266 262 258 253 250 250 251 253 255 254 253 253 252 250 248 247 247 246 243 243 243 241 240 241
286 286 288 287 289 296 304 310 311 306 304 305 303 306 309 311 313 315 316 316 319 320 318 319 319 317 314 311 309 308 307 305 302 297 295 296 302 311 313 312 315 318 320 325 334 337 335 332 329 325 320 316 316 316 310 304 297 284 274 271 271 270 266 262 258 252 249 250 252 253 252 252 253 252 248 245 246 247 246 242 241 241 240 240 241
285 284 287 289 291 296 301 306 310 311 312 312 313 317 322 322 318 311 307 309 316 319 318 319 321 322 320 317 315 312 311 311 307 300 296 297 303 308 308 309 315 318 321 329 338 338 335 333 330 326 321 317 315 314 310 306 301 290 278 272 272 271 268 263 260 256 252 251 252 252 251 250 252 252 247 245 246 247 246 243 241 240 239 239 240
278 281 288 294 293 293 295 301 307 308 306 309 312 312 310 310 308 300 298 307 315 318 318 318 320 323 325 325 324 321 318 317 313 308 303 302 305 306 306 309 315 318 323 334 338 337 335 332 330 328 326 321 316 312 308 304 300 292 281 271 267 269 269 264 261 257 255 254 253 252 252 250 250 252 249 246 246 246 245 243 241 239 237 237 239
270 278 289 291 287 286 288 292 298 300 302 306 303 297 297 299 301 297 293 298 306 312 316 317 316 320 325 327 328 327 324 320 317 314 310 307 308 308 307 311 316 318 325 337 341 340 338 334 331 329 327 323 317 310 305 301 295 289 281 270 262 264 266 264 261 259 256 255 254 253 253 252 251 252 249 246 246 247 244 242 240 238 237 237 239
266 272 280 282 279 280 283 288 290 291 294 293 288 290 295 298 300 297 293 293 297 303 310 313 312 314 319 324 328 331 329 325 323 320 314 312 313 312 312 315 317 319 325 336 341 342 341 338 334 331 328 324 319 314 309 303 294 286 279 269 259 258 262 262 262 262 257 253 253 252 252 251 250 250 249 247 248 248 244 242 241 238 237 239 241
266 269 273 276 274 275 281 289 291 287 286 284 285 291 295 297 300 299 297 296 295 299 306 310 311 312 313 317 326 332 332 328 328 324 318 316 317 315 315 318 318 317 323 333 340 343 343 340 336 334 333 331 329 324 317 308 299 288 278 269 259 254 257 260 260 259 255 250 247 247 248 248 248 248 248 248 248 248 246 244 242 239 238 240 241
262 266 271 273 274 278 285 293 292 287 285 284 285 291 295 298 302 302 301 297 292 297 307 311 312 310 308 312 323 330 330 326 324 320 315 315 317 316 318 319 317 314 318 326 336 343 344 341 336 337 339 340 338 334 327 316 304 291 278 270 260 251 248 253 256 255 252 248 242 241 244 246 245 247 249 249 247 248 249 246 243 241 240 240 239
257 263 271 273 274 277 279 283 283 281 282 282 285 292 297 302 306 306 303 298 292 299 308 311 311 308 306 312 319 323 326 324 318 313 310 312 315 317 318 318 315 312 315 322 330 338 341 340 336 335 336 340 342 340 336 326 312 299 282 267 259 251 243 243 249 250 249 246 240 239 243 244 244 246 249 248 247 247 248 247 244 243 242 241 240
253 260 268 271 273 274 274 275 275 276 280 282 286 293 301 307 310 309 304 296 293 301 308 310 310 307 306 311 313 315 321 320 313 309 309 312 315 317 318 316 313 313 317 323 329 334 335 336 337 337 336 338 342 342 340 335 320 306 287 264 255 251 241 234 238 245 245 244 242 239 241 243 243 244 245 243 245 248 247 246 246 246 245 244 242
252 258 263 264 267 271 274 272 268 267 271 277 285 293 300 305 309 310 304 296 295 304 311 313 313 310 308 308 306 310 318 316 309 308 310 312 314 316 317 316 316 317 319 322 327 330 332 334 341 345 343 343 345 345 345 342 328 309 289 263 250 247 240 230 230 237 238 239 239 237 237 241 241 241 240 239 243 247 245 242 243 245 245 244 242
Height
1579 1579 1580 1580 1579 1580 1580 1580 1580 1580 1580 1579 1579 1579 1579 1579 1579 1579 1580 1581 1582 1583 1583 1583 1582 1579 1577 1578 1579 1579 1577 1576 1577 1577 1578 1579 1580 1581 1581 1582 1582 1582 1583 1584 1584 1584 1584 1585 1585 1585 1586 1586 1586 1587 1587 1588 1588 1589 1589 1590 1590 1590 1591 1591 1591 1592 1592 1592 1593 1593 1594 1594 1594 1595 1595 1596 1596 1597 1597 1597 1597 1598 1598 1598 1598
1578 1579 1579 1579 1579 1579 1579 1579 1580 1580 1579 1579 1579 1579 1579 1579 1579 1579 1579 1580 1581 1582 1582 1582 1581 1579 1576 1576 1578 1578 1577 1576 1576 1577 1577 1578 1578 1579 1580 1581 1581 1582 1582 1583 1584 1584 1584 1584 1585 1585 1585 1586 1586 1586 1586 1587 1587 1588 1588 1589 1589 1590 1590 1590 1591 1591 1591 1592 1592 1592 1593 1593 1593 1594 1594 1595 1595 1596 1596 1596 1597 1597 1597 1597 1598
1578 1579 1579 1579 1579 1579 1579 1579 1579 1579 1578 1578 1578 1577 1577 1578 1579 1579 1579 1579 1580 1581 1581 1581 1580 1579 1577 1575 1575 1576 1576 1575 1575 1576 1577 1577 1577 1578 1579 1580 1580 1581 1582 1583 1583 1583 1583 1584 1584 1585 1585 1585 1585 1585 1585 1586 1586 1587 1588 1588 1588 1589 1589 1589 1590 1590 1591 1591 1591 1592 1592 1592 1593 1593 1593 1594 1594 1595 1595 1595 1596 1596 1596 1596 1597
1578 1578 1579 1579 1579 1579 1579 1578 1578 1577 1577 1577 1577 1576 1576 1577 1577 1578 1578 1578 1578 1579 1579 1579 1579 1578 1577 1575 1574 1574 1575 1575 1575 1575 1575 1575 1576 1576 1577 1578 1579 1580 1581 1580 1580 1580 1581 1582 1583 1583 1584 1584 1584 1585 1585 1585 1585 1586 1587 1587 1587 1588 1588 1588 1589 1589 1590 1590 1590 1591 1591 1591 1592 1592 1593 1593 1593 1594 1594 1594 1595 1595 1595 1596 1596
1578 1578 1578 1578 1578 1578 1577 1577 1577 1577 1576 1576 1576 1576 1575 1575 1575 1576 1576 1576 1576 1577 1577 1577 1577 1577 1576 1575 1574 1573 1573 1574 1574 1574 1573 1573 1574 1574 1575 1576 1577 1577 1577 1576 1576 1576 1577 1578 1580 1581 1582 1583 1584 1584 1584 1584 1584 1584 1585 1586 1586 1587 1587 1587 1588 1588 1589 1589 1589 1590 1590 1590 1591 1591 1592 1592 1592 1593 1593 1593 1594 1594 1594 1595 1595
1577 1577 1578 1577 1576 1576 1575 1576 1576 1575 1575 1575 1575 1575 1574 1574 1574 1574 1574 1574 1574 1574 1575 1575 1575 1575 1574 1574 1574 1573 1573 1572 1572 1572 1572 1572 1572 1572 1573 1574 1574 1574 1574 1574 1574 1573 1573 1573 1575 1577 1579 1581 1582 1583 1583 1583 1583 1583 1584 1585 1585 1586 1586 1586 1586 1587 1588 1588 1588 1589 1589 1589 1590 1590 1591 1591 1591 1592 1592 1592 1593 1593 1593 1593 1594
1576 1576 1576 1576 1576 1575 1575 1575 1574 1574 1574 1573 1573 1572 1572 1572 1572 1572 1571 1572 1572 1572 1572 1572 1573 1573 1573 1573 1572 1572 1572 1571 1570 1569 1570 1570 1570 1570 1571 1572 1572 1572 1572 1572 1572 1571 1571 1571 1571 1573 1575 1577 1579 1581 1582 1582 1582 1582 1583 1583 1584 1585 1585 1585 1585 1586 1586 1587 1587 1587 1588 1588 1589 1589 1589 1590 1590 1591 1591 1591 1592 1592 1592 1592 1592
1575 1574 1575 1575 1575 1574 1574 1573 1573 1572 1572 1572 1571 1570 1570 1570 1570 1569 1569 1569 1569 1570 1570 1570 1570 1571 1571 1570 1570 1570 1570 1570 1568 1567 1567 1569 1569 1568 1569 1570 1570 1570 1570 1569 1569 1570 1570 1570 1570 1570 1572 1574 1576 1579 1580 1581 1581 1581 1582 1582 1582 1583 1584 1584 1585 1585 1585 1586 1586 1586 1587 1587 1587 1588 1588 1589 1589 1589 1590 1590 1591 1591 1591 1591 1591
1574 1573 1573 1574 1573 1573 1573 1572 1571 1571 1570 1570 1569 1569 1569 1568 1568 1567 1567 1567 1567 1567 1567 1568 1568 1568 1568 1568 1568 1568 1568 1568 1567 1565 1565 1566 1567 1566 1567 1567 1568 1568 1567 1567 1567 1567 1569 1570 1570 1570 1571 1572 1574 1576 1578 1579 1580 1580 1581 1581 1581 1582 1582 1583 1584 1584 1584 1584 1585 1585 1585 1586 1586 1586 1587 1587 1588 1588 1589 1589 1589 1590 1590 1590 1590
1573 1572 1572 1572 1571 1571 1571 1571 1570 1569 1568 1568 1568 1568 1568 1567 1566 1566 1565 1565 1565 1564 1564 1565 1565 1565 1565 1565 1565 1566 1565 1566 1566 1564 1562 1563 1564 1564 1565 1565 1566 1566 1565 1565 1565 1565 1566 1568 1569 1569 1570 1571 1572 1574 1576 1577 1578 1579 1579 1580 1580 1580 1581 1582 1582 1583 1583 1583 1583 1584 1584 1584 1585 1585 1585 1586 1586 1587 1587 1587 1588 1588 1588 1589 1589
1571 1571 1571 1570 1570 1570 1570 1570 1569 1568 1567 1566 1566 1566 1566 1565 1564 1564 1564 1563 1563 1563 1562 1562 1562 1562 1562 1562 1562 1563 1563 1563 1563 1562 1561 1561 1562 1562 1562 1563 1563 1563 1563 1563 1563 1563 1564 1566 1567 1568 1569 1570 1571 1572 1573 1574 1576 1577 1577 1578 1578 1579 1579 1580 1581 1581 1581 1582 1582 1582 1583 1583 1583 1584 1584 1584 1585 1585 1585 1586 1586 1587 1587 1587 1587
1570 1569 1569 1568 1569 1569 1569 1568 1567 1566 1566 1565 1565 1564 1564 1563 1563 1563 1562 1562 1562 1561 1561 1560 1560 1560 1559 1559 1559 1559 1560 1560 1560 1560 1560 1560 1559 1560 1560 1560 1561 1561 1561 1561 1561 1561 1562 1564 1565 1566 1566 1567 1568 1568 1570 1571 1572 1574 1575 1576 1576 1577 1577 1578 1579 1579 1580 1580 1580 1581 1581 1581 1582 1582 1582 1583 1583 1583 1584 1584 1585 1585 1585 1586 1586
1568 1568 1568 1568 1568 1567 1567 1567 1566 1565 1564 1564 1563 1563 1562 1562 1562 1561 1561 1560 1560 1559 1559 1558 1558 1557 1557 1557 1557 1557 1557 1557 1557 1558 1558 1558 1558 1557 1557 1557 1558 1558 1558 1558 1559 1559 1560 1561 1561 1562 1563 1563 1564 1565 1566 1567 1568 1570 1571 1573 1574 1574 1575 1576 1576 1577 1578 1578 1578 1579 1579 1580 1580 1580 1581 1581 1581 1582 1582 1582 1583 1583 1583 1584 1584
1567 1567 1567 1566 1566 1566 1565 1565 1564 1563 1562 1562 1562 1561 1561 1561 1560 1560 1559 1558 1558 1558 1558 1557 1556 1556 1555 1554 1554 1554 1554 1554 1555 1555 1556 1556 1556 1555 1555 1554 1554 1555 1555 1555 1556 1557 1558 1558 1558 1559 1560 1561 1562 1563 1564 1564 1564 1565 1567 1569 1570 1571 1572 1573 1574 1574 1575 1576 1576 1576 1577 1577 1578 1578 1579 1579 1580 1580 1580 1581 1581 1581 1581 1582 1582
1566 1566 1566 1565 1565 1564 1563 1563 1562 1562 1561 1560 1560 1559 1559 1559 1559 1558 1558 1557 1557 1557 1557 1556 1555 1555 1554 1553 1552 1551 1551 1551 1552 1553 1553 1554 1554 1553 1552 1552 1552 1552 1552 1552 1553 1554 1554 1555 1555 1556 1557 1558 1559 1560 1561 1561 1561 1562 1563 1564 1566 1567 1569 1570 1571 1571 1572 1573 1573 1574 1574 1575 1575 1576 1576 1577 1578 1578 1578 1579 1579 1579 1580 1580 1580
1565 1565 1564 1564 1563 1562 1562 1561 1561 1560 1560 1559 1559 1558 1558 1557 1557 1557 1556 1555 1555 1555 1555 1555 1554 1554 1554 1553 1552 1551 1549 1549 1549 1550 1551 1551 1551 1551 1550 1550 1549 1549 1549 1548 1549 1549 1550 1551 1552 1553 1554 1555 1556 1556 1556 1557 1557 1558 1558 1559 1560 1562 1564 1566 1567 1568 1569 1569 1570 1571 1571 1572 1572 1573 1574 1575 1575 1576 1576 1577 1577 1577 1578 1578 1578
1563 1563 1563 1562 1562 1561 1561 1560 1560 1559 1558 1558 1558 1557 1557 1556 1556 1555 1555 1554 1554 1553 1553 1553 1553 1553 1553 1552 1552 1551 1550 1549 1548 1547 1548 1549 1549 1549 1549 1548 1546 1546 1545 1545 1545 1545 1546 1547 1548 1550 1551 1552 1552 1553 1552 1553 1554 1554 1555 1555 1556 1558 1559 1561 1563 1564 1565 1566 1567 1567 1568 1569 1570 1570 1571 1572 1573 1574 1574 1575 1575 1576 1576 1577 1577
1561 1561 1561 1560 1560 1560 1559 1559 1559 1558 1558 1557 1557 1556 1555 1555 1555 1554 1554 1553 1553 1552 1552 1552 1552 1551 1552 1552 1551 1551 1549 1549 1548 1545 1544 1545 1546 1547 1547 1546 1545 1543 1543 1543 1542 1542 1543 1543 1544 1547 1548 1548 1549 1549 1548 1549 1549 1550 1551 1552 1553 1554 1556 1557 1559 1560 1561 1562 1563 1564 1564 1565 1566 1567 1568 1569 1570 1571 1572 1572 1573 1574 1574 1575 1575
1560 1560 1560 1559 1559 1558 1558 1558 1557 1557 1557 1556 1556 1555 1555 1554 1554 1553 1553 1552 1552 1551 1551 1551 1550 1550 1550 1550 1550 1550 1548 1548 1547 1545 1542 1541 1541 1543 1544 1544 1543 1542 1541 1540 1540 1541 1541 1541 1541 1542 1544 1544 1544 1544 1544 1545 1545 1546 1546 1548 1549 1550 1552 1554 1555 1556 1557 1558 1559 1560 1560 1561 1562 1564 1565 1566 1567 1568 1569 1570 1571 1571 1572 1572 1573
1559 1558 1558 1558 1558 1558 1557 1557 1556 1556 1556 1555 1555 1554 1554 1553 1553 1552 1552 1551 1551 1550 1550 1549 1549 1549 1549 1548 1548 1548 1547 1547 1546 1545 1542 1539 1537 1538 1540 1540 1540 1539 1539 1538 1538 1538 1538 1538 1537 1538 1538 1539 1540 1540 1540 1541 1542 1542 1543 1544 1545 1546 1548 1550 1551 1553 1553 1554 1555 1555 1556 1557 1558 1560 1561 1563 1564 1565 1566 1567 1568 1569 1569 1570 1570
1557 1557 1557 1557 1557 1556 1556 1556 1555 1555 1554 1554 1554 1553 1553 1552 1552 1552 1551 1550 1550 1549 1549 1548 1548 1548 1547 1547 1546 1546 1546 1545 1544 1543 1542 1540 1537 1535 1536 1536 1536 1536 1537 1536 1536 1536 1535 1534 1534 1534 1534 1535 1537 1537 1537 1537 1538 1539 1539 1540 1541 1542 1544 1546 1547 1549 1550 1550 1551 1551 1552 1553 1554 1556 1557 1559 1560 1562 1563 1564 1565 1566 1567 1567 1568
1556 1556 1555 1556 1556 1555 1555 1555 1554 1554 1553 1553 1553 1552 1552 1551 1551 1551 1550 1549 1549 1548 1548 1547 1547 1546 1546 1545 1545 1544 1543 1543 1543 1542 1540 1539 1537 1535 1534 1534 1532 1532 1533 1534 1533 1533 1532 1531 1531 1531 1532 1533 1534 1534 1533 1533 1534 1535 1535 1536 1537 1538 1540 1541 1543 1544 1546 1547 1547 1548 1548 1549 1550 1551 1553 1555 1556 1558 1559 1560 1562 1563 1564 1565 1565
1554 1554 1554 1554 1554 1554 1554 1553 1553 1553 1552 1552 1552 1551 1551 1551 1550 1550 1549 1548 1548 1547 1547 1546 1546 1545 1544 1544 1543 1543 1542 1541 1541 1540 1539 1538 1536 1535 1534 1533 1530 1528 1529 1530 1530 1530 1530 1529 1528 1528 1528 1529 1530 1530 1529 1529 1530 1530 1531 1532 1533 1534 1536 1537 1538 1539 1541 1542 1543 1544 1544 1545 1546 1547 1548 1550 1552 1553 1555 1557 1558 1559 1560 1561 1562
1553 1553 1553 1553 1552 1552 1552 1552 1551 1551 1551 1551 1550 1550 1550 1549 1549 1549 1548 1548 1547 1546 1546 1545 1544 1544 1543 1543 1542 1541 1541 1540 1539 1539 1538 1537 1535 1534 1532 1531 1528 1526 1526 1527 1526 1527 1527 1527 1526 1526 1526 1526 1526 1526 1526 1525 1526 1526 1527 1528 1529 1530 1531 1533 1533 1535 1536 1537 1539 1539 1541 1541 1542 1543 1544 1546 1548 1549 1551 1552 1554 1555 1556 1557 1559
1552 1552 1552 1551 1551 1551 1551 1550 1550 1550 1549 1549 1549 1549 1549 1548 1548 1548 1547 1547 1546 1545 1545 1544 1543 1543 1542 1542 1541 1541 1540 1539 1538 1538 1537 1536 1535 1533 1531 1530 1527 1524 1523 1524 1523 1522 1523 1523 1523 1523 1523 1523 1523 1523 1522 1522 1521 1523 1524 1524 1525 1526 1527 1529 1529 1530 1531 1532 1534 1535 1536 1537 1538 1539 1541 1542 1544 1545 1547 1548 1550 1551 1553 1554 1555
1550 1550 1550 1550 1550 1550 1549 1549 1549 1548 1548 1548 1548 1548 1548 1547 1547 1546 1546 1545 1545 1544 1544 1543 1542 1542 1541 1541 1540 1540 1539 1538 1538 1537 1536 1535 1534 1532 1530 1528 1526 1523 1521 1521 1520 1519 1518 1519 1519 1519 1519 1519 1519 1519 1518 1518 1517 1518 1519 1520 1521 1522 1523 1524 1525 1526 1527 1528 1529 1531 1532 1533 1534 1536 1537 1538 1540 1541 1543 1544 1546 1547 1549 1550 1551
1549 1549 1549 1549 1549 1548 1548 1548 1548 1548 1547 1547 1547 1547 1546 1546 1546 1545 1545 1544 1544 1543 1543 1542 1541 1541 1540 1540 1539 1539 1538 1537 1537 1536 1535 1534 1533 1532 1530 1527 1523 1520 1519 1518 1517 1516 1515 1515 1515 1515 1516 1515 1515 1515 1514 1514 1514 1514 1515 1515 1516 1517 1519 1520 1521 1522 1523 1524 1525 1527 1528 1529 1530 1531 1533 1534 1535 1537 1539 1540 1542 1543 1545 1546 1547
1548 1548 1548 1548 1547 1547 1547 1547 1546 1546 1546 1546 1546 1545 1545 1545 1545 1544 1544 1543 1543 1542 1542 1541 1541 1540 1539 1539 1538 1538 1537 1536 1535 1535 1534 1533 1532 1531 1529 1527 1524 1520 1516 1514 1512 1512 1512 1512 1511 1511 1512 1512 1511 1511 1511 1510 1510 1510 1511 1511 1511 1512 1514 1515 1516 1517 1518 1519 1521 1522 1523 1525 1526 1527 1529 1530 1531 1533 1534 1536 1537 1539 1541 1542 1543
1547 1547 1547 1546 1546 1546 1545 1545 1545 1545 1545 1545 1544 1544 1544 1544 1543 1543 1543 1542 1542 1541 1541 1540 1540 1539 1538 1538 1537 1536 1535 1534 1534 1533 1533 1532 1531 1529 1528 1526 1525 1521 1517 1513 1510 1508 1508 1509 1508 1506 1507 1508 1508 1507 1507 1506 1506 1507 1507 1507 1507 1507 1509 1510 1511 1512 1513 1514 1516 1517 1518 1520 1522 1523 1524 1526 1527 1529 1530 1532 1533 1535 1536 1538 1539
1546 1546 1546 1545 1545 1545 1544 1544 1543 1543 1543 1543 1543 1543 1543 1542 1542 1542 1541 1541 1540 1540 1540 1539 1539 1538 1537 1536 1536 1535 1534 1533 1533 1532 1531 1530 1529 1528 1526 1525 1523 1521 1518 1513 1508 1507 1506 1504 1504 1504 1502 1503 1503 1503 1503 1502 1502 1502 1502 1502 1503 1504 1504 1505 1506 1507 1509 1510 1511 1512 1513 1515 1517 1519 1520 1521 1523 1524 1526 1527 1529 1530 1532 1533 1535
1545 1545 1545 1544 1544 1543 1543 1542 1542 1542 1542 1542 1542 1541 1541 1541 1541 1540 1540 1540 1539 1539 1538 1538 1537 1536 1535 1535 1534 1533 1532 1532 1531 1531 1530 1529 1527 1526 1524 1523 1522 1519 1518 1514 1507 1504 1505 1502 1499 1500 1499 1498 1498 1498 1497 1497 1498 1498 1498 1497 1498 1499 1500 1500 1501 1503 1504 1505 1506 1507 1509 1510 1512 1514 1516 1517 1519 1520 1522 1523 1525 1526 1528 1529 1530
1544 1544 1543 1543 1543 1542 1541 1541 1541 1540 1540 1540 1540 1540 1540 1539 1539 1539 1539 1538 1538 1537 1537 1536 1535 1534 1534 1533 1533 1532 1531 1530 1530 1529 1528 1527 1526 1524 1522 1521 1520 1517 1515 1513 1506 1501 1502 1501 1496 1495 1495 1494 1493 1493 1492 1492 1493 1494 1494 1493 1494 1494 1495 1496 1497 1498 1499 1501 1502 1503 1504 1506 1507 1509 1511 1513 1514 1516 1518 1519 1520 1522 1523 1525 1526
1543 1542 1542 1542 1541 1541 1540 1540 1539 1539 1539 1539 1538 1538 1538 1538 1537 1537 1537 1536 1536 1535 1535 1535 1534 1532 1532 1532 1531 1530 1530 1528 1528 1527 1526 1525 1523 1522 1520 1518 1517 1516 1513 1510 1505 1499 1497 1498 1494 1491 1490 1489 1487 1487 1488 1487 1488 1489 1489 1489 1490 1490 1491 1492 1493 1494 1495 1496 1498 1499 1501 1502 1503 1505 1506 1508 1510 1512 1513 1515 1516 1518 1519 1520 1522
1541 1541 1540 1540 1540 1539 1539 1538 1538 1537 1537 1537 1537 1536 1536 1536 1536 1535 1535 1535 1534 1534 1533 1533 1532 1531 1530 1530 1529 1528 1528 1527 1526 1525 1523 1522 1521 1519 1518 1516 1514 1513 1511 1507 1504 1498 1494 1493 1490 1486 1485 1485 1482 1482 1483 1483 1483 1484 1484 1485 1485 1486 1487 1487 1488 1489 1490 1491 1493 1494 1496 1497 1499 1500 1502 1504 1506 1507 1509 1510 1511 1513 1514 1516 1517
1539 1539 1539 1538 1538 1538 1537 1537 1536 1536 1535 1535 1535 1535 1534 1534 1534 1533 1533 1533 1532 1532 1531 1531 1530 1529 1528 1527 1527 1526 1525 1524 1523 1523 1521 1519 1518 1517 1515 1514 1512 1510 1509 1506 1502 1497 1492 1489 1487 1483 1480 1479 1477 1477 1478 1478 1478 1479 1479 1479 1480 1481 1482 1483 1483 1484 1485 1486 1487 1489 1491 1493 1494 1496 1497 1499 1501 1503 1504 1506 1507 1508 1510 1511 1513
1538 1538 1538 1537 1537 1537 1536 1536 1535 1534 1534 1533 1533 1533 1532 1532 1531 1531 1531 1531 1530 1530 1529 1528 1527 1527 1526 1525 1524 1524 1523 1522 1521 1520 1519 1517 1516 1514 1513 1511 1510 1508 1506 1504 1500 1496 1491 1487 1485 1481 1478 1475 1473 1472 1473 1473 1473 1474 1474 1474 1475 1476 1477 1478 1478 1479 1480 1482 1483 1484 1486 1488 1489 1491 1493 1495 1497 1498 1500 1501 1502 1504 1505 1506 1508
1536 1536 1536 1536 1536 1535 1535 1534 1533 1533 1532 1531 1531 1530 1530 1530 1529 1529 1529 1529 1528 1527 1527 1526 1525 1524 1523 1522 1522 1521 1520 1519 1518 1517 1516 1515 1513 1512 1510 1509 1507 1505 1503 1501 1498 1494 1490 1486 1482 1479 1475 1472 1469 1468 1469 1470 1469 1469 1470 1470 1470 1471 1472 1473 1473 1474 1476 1478 1479 1480 1482 1483 1485 1487 1489 1491 1492 1494 1495 1496 1498 1499 1500 1502 1503
1534 1534 1534 1534 1534 1533 1532 1532 1531 1531 1530 1529 1528 1528 1528 1527 1527 1527 1527 1526 1526 1525 1524 1524 1523 1522 1521 1520 1519 1519 1518 1517 1516 1514 1513 1513 1511 1510 1508 1507 1505 1503 1500 1498 1495 1492 1488 1484 1480 1476 1472 1470 1467 1465 1465 1467 1466 1465 1465 1465 1465 1466 1467 1467 1468 1469 1471 1473 1474 1476 1478 1479 1481 1483 1484 1486 1488 1489 1491 1492 1493 1494 1495 1497 1499
1532 1532 1532 1532 1531 1531 1530 1530 1529 1529 1528 1527 1526 1526 1525 1525 1525 1525 1524 1524 1523 1523 1522 1521 1520 1519 1518 1517 1517 1516 1515 1514 1513 1512 1511 1510 1509 1507 1506 1504 1502 1500 1497 1495 1492 1489 1485 1481 1478 1474 1470 1467 1465 1463 1462 1463 1462 1461 1461 1461 1460 1461 1463 1463 1464 1465 1466 1468 1469 1471 1473 1475 1476 1478 1479 1481 1483 1484 1486 1487 1488 1489 1491 1492 1494
1530 1530 1530 1529 1529 1528 1528 1527 1527 1526 1525 1524 1524 1524 1523 1523 1523 1522 1522 1522 1521 1520 1519 1518 1517 1516 1515 1515 1514 1513 1513 1511 1510 1509 1508 1507 1506 1505 1503 1501 1499 1497 1495 1492 1489 1486 1483 1479 1475 1472 1468 1465 1463 1461 1459 1459 1458 1458 1458 1458 1457 1457 1459 1459 1460 1461 1462 1464 1465 1466 1468 1470 1471 1473 1474 1476 1477 1479 1481 1482 1483 1484 1486 1487 1489
1528 1527 1527 1526 1526 1525 1525 1524 1524 1523 1522 1522 1522 1522 1521 1521 1520 1520 1520 1520 1519 1518 1517 1516 1515 1514 1513 1512 1512 1511 1510 1509 1508 1506 1505 1505 1503 1502 1500 1498 1496 1494 1492 1489 1486 1483 1480 1476 1472 1469 1466 1463 1460 1459 1457 1456 1455 1454 1455 1455 1453 1453 1455 1455 1455 1457 1458 1460 1461 1462 1463 1464 1466 1467 1469 1470 1471 1473 1475 1476 1478 1479 1481 1482 1484
1525 1524 1524 1524 1523 1523 1523 1522 1522 1521 1520 1520 1519 1519 1519 1518 1518 1518 1517 1517 1517 1516 1515 1514 1513 1512 1511 1510 1509 1509 1508 1506 1505 1504 1503 1502 1500 1499 1497 1495 1494 1491 1489 1487 1484 1480 1477 1473 1469 1466 1463 1460 1458 1456 1455 1453 1452 1451 1450 1450 1450 1450 1451 1450 1449 1451 1453 1455 1457 1457 1457 1459 1461 1461 1463 1464 1466 1468 1469 1470 1472 1474 1476 1478 1480
1522 1521 1521 1521 1521 1521 1520 1520 1520 1519 1518 1518 1517 1517 1517 1516 1516 1516 1515 1515 1515 1514 1513 1512 1511 1510 1509 1508 1507 1506 1505 1503 1502 1501 1499 1499 1497 1496 1494 1492 1491 1489 1487 1484 1481 1478 1474 1470 1467 1464 1461 1458 1455 1453 1451 1450 1449 1447 1446 1446 1446 1446 1446 1445 1443 1445 1447 1450 1452 1451 1452 1454 1456 1457 1457 1459 1461 1462 1464 1465 1467 1470 1472 1474 1476
1519 1519 1519 1518 1518 1518 1518 1518 1517 1517 1516 1516 1515 1515 1515 1514 1514 1514 1513 1513 1512 1511 1511 1510 1509 1508 1506 1506 1504 1503 1502 1501 1499 1498 1496 1496 1494 1493 1491 1490 1488 1487 1485 1482 1478 1475 1472 1468 1464 1461 1458 1455 1452 1450 1448 1446 1445 1443 1442 1442 1441 1441 1441 1441 1439 1439 1442 1445 1447 1447 1446 1449 1452 1452 1452 1454 1456 1457 1459 1461 1464 1466 1468 1471 1473
1517 1517 1516 1516 1516 1516 1516 1516 1516 1515 1514 1514 1513 1513 1512 1512 1512 1511 1511 1511 1510 1509 1508 1507 1507 1506 1504 1503 1502 1501 1500 1498 1497 1495 1494 1493 1491 1489 1488 1486 1485 1484 1482 1480 1477 1474 1470 1467 1462 1458 1455 1453 1449 1446 1445 1443 1441 1439 1437 1436 1436 1436 1437 1436 1435 1436 1438 1441 1443 1442 1442 1444 1447 1447 1447 1449 1452 1453 1455 1457 1459 1462 1465 1467 1469
1515 1515 1515 1514 1514 1514 1514 1514 1514 1513 1512 1511 1511 1511 1510 1509 1509 1509 1508 1508 1507 1506 1506 1505 1504 1503 1502 1501 1500 1498 1497 1496 1494 1493 1491 1490 1488 1486 1485 1483 1482 1481 1479 1477 1475 1472 1469 1465 1461 1456 1453 1450 1446 1443 1441 1438 1436 1434 1432 1431 1431 1431 1432 1431 1431 1432 1434 1436 1438 1438 1437 1438 1442 1443 1443 1445 1448 1449 1451 1452 1455 1458 1461 1463 1465
1513 1513 1513 1512 1512 1512 1512 1512 1512 1511 1510 1510 1509 1508 1508 1507 1506 1506 1505 1505 1504 1504 1503 1503 1502 1501 1500 1499 1498 1496 1494 1493 1492 1490 1489 1487 1485 1483 1482 1480 1478 1477 1476 1474 1472 1469 1467 1463 1459 1454 1450 1446 1443 1439 1436 1433 1431 1429 1427 1426 1426 1426 1427 1427 1427 1427 1429 1430 1432 1433 1432 1433 1437 1438 1438 1441 1444 1445 1447 1449 1451 1454 1456 1459 1461
1510 1510 1510 1510 1510 1510 1510 1510 1510 1509 1508 1508 1507 1506 1505 1505 1504 1503 1502 1502 1502 1501 1501 1500 1499 1499 1498 1497 1495 1494 1492 1491 1489 1488 1486 1484 1482 1480 1479 1477 1475 1473 1472 1471 1469 1466 1464 1461 1457 1453 1448 1444 1439 1434 1431 1428 1425 1423 1422 1420 1419 1420 1421 1422 1421 1421 1423 1424 1426 1428 1428 1429 1432 1433 1433 1437 1440 1441 1443 1445 1447 1449 1452 1454 1456
1508 1508 1508 1508 1508 1507 1507 1507 1507 1507 1507 1506 1505 1504 1503 1502 1501 1500 1500 1499 1499 1499 1498 1497 1497 1496 1495 1494 1493 1492 1490 1488 1487 1485 1484 1482 1480 1478 1476 1474 1472 1470 1469 1468 1465 1463 1461 1458 1454 1450 1445 1441 1436 1430 1426 1422 1419 1418 1416 1412 1412 1414 1416 1416 1415 1416 1418 1419 1421 1424 1425 1425 1427 1429 1430 1433 1435 1437 1438 1441 1443 1445 1447 1449 1452
1505 1505 1505 1505 1505 1505 1505 1505 1504 1504 1504 1503 1502 1502 1501 1500 1499 1497 1497 1496 1496 1496 1495 1495 1494 1493 1493 1492 1491 1490 1488 1486 1485 1483 1481 1479 1477 1476 1473 1471 1469 1468 1466 1464 1461 1459 1457 1454 1450 1446 1441 1436 1431 1426 1421 1416 1413 1411 1408 1405 1405 1408 1409 1409 1410 1411 1413 1415 1417 1420 1421 1420 1423 1426 1428 1430 1432 1432 1434 1437 1439 1441 1443 1445 1447
1503 1503 1503 1503 1503 1502 1502 1502 1501 1501 1501 1500 1500 1499 1498 1498 1496 1495 1494 1494 1494 1494 1493 1492 1491 1491 1490 1489 1488 1487 1486 1484 1483 1481 1479 1477 1475 1473 1471 1469 1467 1465 1463 1461 1458 1455 1452 1449 1445 1440 1436 1431 1426 1421 1416 1410 1406 1404 1401 1398 1399 1400 1401 1402 1405 1407 1408 1409 1412 1416 1417 1416 1419 1422 1424 1427 1428 1429 1430 1433 1435 1436 1439 1441 1443